This is the latest recevied weather packets stored in our database for station/object IR3AS. If no packets are shown the sender has not sent any weather packets the latest 10 day(s).
| Time | Temp. | Humidity | Pressure | Rain* | Wind** | Luminosity | Snow |
|---|---|---|---|---|---|---|---|
| 1787370914 | 9.44° C | 65% | 857 hPa | 0 mm | - | - | - |
| 1787370614 | 9.44° C | 67% | 857.1 hPa | 0 mm | - | - | - |
| 1787370314 | 9.44° C | 67% | 856.9 hPa | 0 mm | - | - | - |
| 1787370014 | 10° C | 67% | 856.6 hPa | 0 mm | - | - | - |
| 1787369714 | 10° C | 67% | 856.8 hPa | 0 mm | - | - | - |
| 1787369414 | 9.44° C | 66% | 856.8 hPa | 0 mm | - | - | - |
| 1787369159 | 9.44° C | 65% | 857 hPa | 0 mm | - | - | - |
| 1787369114 | 9.44° C | 65% | 857 hPa | 0 mm | - | - | - |
| 1787368814 | 9.44° C | 64% | 857 hPa | 0 mm | - | - | - |
| 1787368514 | 9.44° C | 64% | 857 hPa | 0 mm | - | - | - |
| 1787368214 | 9.44° C | 62% | 856.9 hPa | 0 mm | - | - | - |
| 1787367914 | 9.44° C | 68% | 856.9 hPa | 0 mm | - | - | - |
| 1787367614 | 9.44° C | 66% | 856.8 hPa | 0 mm | - | - | - |
| 1787367314 | 9.44° C | 67% | 856.8 hPa | 0 mm | - | - | - |
| 1787367014 | 9.44° C | 70% | 857 hPa | 0 mm | - | - | - |
| 1787366714 | 9.44° C | 67% | 857.2 hPa | 0 mm | - | - | - |
| 1787366456 | 9.44° C | 63% | 857.2 hPa | 0 mm | - | - | - |
| 1787366414 | 9.44° C | 63% | 857.2 hPa | 0 mm | - | - | - |
| 1787366114 | 9.44° C | 66% | 857.3 hPa | 0 mm | - | - | - |
| 1787365814 | 9.44° C | 63% | 857.4 hPa | 0 mm | - | - | - |
| 1787365514 | 9.44° C | 64% | 857.5 hPa | 0 mm | - | - | - |
| 1787365214 | 9.44° C | 63% | 857.8 hPa | 0 mm | - | - | - |
| 1787364914 | 9.44° C | 65% | 857.6 hPa | 0 mm | - | - | - |
| 1787364614 | 9.44° C | 71% | 856.1 hPa | 0 mm | - | - | - |
| 1787364314 | 9.44° C | 71% | 855.8 hPa | 0 mm | - | - | - |
* Rain latest hour (hover to see other rain measurements)
** Current wind speed in m/s (hover to see current wind gust speed)